Location: Launay
(47.2429°N, 1.5727°E)
Time: 01:13:53
(UTC+00:00)

ASTEX 1 - Pass Details

Date: 19 May 2025
Orbit: 715 x 734 km, 92.7° (Epoch: 18 June)

Event Time Altitude Azimuth Distance (km) Brightness Sun altitude
Rises 23:18:17 0° 11° (N) 3,162 7.9 -22.4°
Reaches altitude 10° 23:20:42 10° 18° (NNE) 2,238 6.8 -22.4°
Maximum altitude 23:25:25 43° 90° (E) 1,022 4.0 -22.5°
Enters shadow 23:26:13 40° 116° (ESE) 1,077 4.0 -22.6°
